Time,TemperatureF,DewpointF,PressureIn,WindDirection,WindDirectionDegrees,WindSpeedMPH,WindSpeedGustMPH,Humidity,HourlyPrecipIn,Conditions,Clouds,dailyrainin,SoftwareType,DateUTC
2013-08-11 00:01:00,67.0,64.0,30.05,SE,146,0.0,4.0,91,0.00,,,0.17,,2013-08-11 04:01:00,
2013-08-11 00:12:00,66.0,63.0,30.05,SE,138,0.0,1.0,91,0.00,,,0.17,,2013-08-11 04:12:00,
2013-08-11 00:22:00,66.0,63.0,30.05,SE,138,0.0,1.0,91,0.00,,,0.17,,2013-08-11 04:22:00,
2013-08-11 00:32:00,66.0,63.0,30.05,East,95,0.0,5.0,91,0.00,,,0.17,,2013-08-11 04:32:00,
2013-08-11 00:43:00,66.0,64.0,30.06,East,95,0.0,3.0,92,0.00,,,0.17,,2013-08-11 04:43:00,
2013-08-11 00:53:00,66.0,64.0,30.06,East,95,0.0,3.0,92,0.00,,,0.17,,2013-08-11 04:53:00,
2013-08-11 01:02:00,66.0,64.0,30.06,East,95,0.0,1.0,92,0.00,,,0.17,,2013-08-11 05:02:00,
2013-08-11 01:19:00,65.0,63.0,30.06,East,95,0.0,1.0,92,0.00,,,0.17,,2013-08-11 05:19:00,
2013-08-11 01:25:00,65.0,63.0,30.06,East,95,0.0,1.0,92,0.00,,,0.17,,2013-08-11 05:25:00,
2013-08-11 01:36:00,65.0,63.0,30.06,East,95,0.0,1.0,92,0.00,,,0.17,,2013-08-11 05:36:00,
2013-08-11 01:46:00,65.0,63.0,30.06,East,95,0.0,0.0,92,0.00,,,0.17,,2013-08-11 05:46:00,
2013-08-11 01:54:00,65.0,63.0,30.06,East,95,0.0,0.0,92,0.00,,,0.17,,2013-08-11 05:54:00,
2013-08-11 02:04:00,65.0,63.0,30.06,WNW,282,0.0,0.0,93,0.00,,,0.17,,2013-08-11 06:04:00,
2013-08-11 02:17:00,65.0,63.0,30.05,WNW,282,0.0,0.0,93,0.00,,,0.17,,2013-08-11 06:17:00,
2013-08-11 02:26:00,65.0,63.0,30.05,WNW,282,0.0,0.0,93,0.00,,,0.17,,2013-08-11 06:26:00,
2013-08-11 02:36:00,64.0,62.0,30.05,WNW,282,0.0,0.0,93,0.00,,,0.17,,2013-08-11 06:36:00,
2013-08-11 02:48:00,63.0,61.0,30.05,WNW,282,0.0,0.0,94,0.00,,,0.17,,2013-08-11 06:48:00,
2013-08-11 02:55:00,63.0,61.0,30.05,WNW,282,0.0,0.0,94,0.00,,,0.17,,2013-08-11 06:55:00,
2013-08-11 03:06:00,63.0,61.0,30.05,WNW,298,1.0,7.0,94,0.00,,,0.17,,2013-08-11 07:06:00,
2013-08-11 03:15:00,63.0,61.0,30.05,WNW,298,0.0,0.0,94,0.00,,,0.17,,2013-08-11 07:15:00,
2013-08-11 03:24:00,63.0,61.0,30.05,WNW,298,0.0,0.0,94,0.00,,,0.17,,2013-08-11 07:24:00,
2013-08-11 03:36:00,62.0,61.0,30.05,WNW,298,0.0,0.0,95,0.00,,,0.17,,2013-08-11 07:36:00,
2013-08-11 03:45:00,62.0,61.0,30.05,North,355,0.0,0.0,95,0.00,,,0.17,,2013-08-11 07:45:00,
2013-08-11 03:54:00,62.0,61.0,30.05,North,355,0.0,0.0,95,0.00,,,0.17,,2013-08-11 07:54:00,
2013-08-11 04:10:00,62.0,61.0,30.05,North,355,0.0,0.0,96,0.00,,,0.17,,2013-08-11 08:10:00,
2013-08-11 04:36:00,62.0,61.0,30.05,NNE,30,0.0,1.0,96,0.00,,,0.17,,2013-08-11 08:36:00,
2013-08-11 04:47:00,62.0,61.0,30.05,East,86,0.0,6.0,96,0.00,,,0.17,,2013-08-11 08:47:00,
2013-08-11 04:57:00,62.0,61.0,30.05,East,86,0.0,6.0,96,0.00,,,0.17,,2013-08-11 08:57:00,
2013-08-11 05:08:00,61.0,60.0,30.05,East,86,0.0,1.0,97,0.00,,,0.17,,2013-08-11 09:08:00,
2013-08-11 05:16:00,61.0,60.0,30.05,East,86,0.0,2.0,96,0.00,,,0.17,,2013-08-11 09:16:00,
2013-08-11 05:28:00,61.0,60.0,30.05,East,86,0.0,2.0,96,0.00,,,0.17,,2013-08-11 09:28:00,
2013-08-11 05:35:00,61.0,60.0,30.05,East,86,0.0,1.0,97,0.00,,,0.17,,2013-08-11 09:35:00,
2013-08-11 05:43:00,60.0,59.0,30.05,East,86,0.0,1.0,96,0.00,,,0.17,,2013-08-11 09:43:00,
2013-08-11 05:58:00,60.0,59.0,30.05,East,86,0.0,1.0,96,0.00,,,0.17,,2013-08-11 09:58:00,
2013-08-11 06:05:00,60.0,59.0,30.05,East,86,0.0,2.0,97,0.00,,,0.17,,2013-08-11 10:05:00,
2013-08-11 06:15:00,60.0,59.0,30.05,East,86,0.0,1.0,96,0.00,,,0.17,,2013-08-11 10:15:00,
2013-08-11 06:29:00,60.0,59.0,30.05,East,86,0.0,1.0,96,0.00,,,0.17,,2013-08-11 10:29:00,
2013-08-11 06:35:00,60.0,59.0,30.06,ENE,61,0.0,5.0,97,0.01,,,0.18,,2013-08-11 10:35:00,
2013-08-11 06:45:00,60.0,59.0,30.06,ENE,62,0.0,2.0,97,0.01,,,0.18,,2013-08-11 10:45:00,
2013-08-11 06:55:00,60.0,59.0,30.06,ENE,62,0.0,2.0,97,0.01,,,0.18,,2013-08-11 10:55:00,
2013-08-11 07:06:00,60.0,59.0,30.06,ENE,71,0.0,2.0,97,0.01,,,0.18,,2013-08-11 11:06:00,
2013-08-11 07:24:00,60.0,59.0,30.07,North,11,0.0,11.0,97,0.01,,,0.18,,2013-08-11 11:24:00,
2013-08-11 07:37:00,60.0,59.0,30.07,NNE,26,0.0,2.0,97,0.00,,,0.18,,2013-08-11 11:37:00,
2013-08-11 07:47:00,60.0,59.0,30.07,NNE,26,0.0,1.0,97,0.00,,,0.18,,2013-08-11 11:47:00,
2013-08-11 08:06:00,60.0,59.0,30.07,NNE,26,0.0,2.0,97,0.00,,,0.18,,2013-08-11 12:06:00,
2013-08-11 08:15:00,61.0,60.0,30.07,NNE,26,0.0,1.0,97,0.00,,,0.18,,2013-08-11 12:15:00,
2013-08-11 08:29:00,61.0,60.0,30.07,NNE,26,0.0,1.0,97,0.00,,,0.18,,2013-08-11 12:29:00,
2013-08-11 08:45:00,62.0,61.0,30.06,NNE,26,0.0,3.0,95,0.00,,,0.18,,2013-08-11 12:45:00,
2013-08-11 08:54:00,62.0,61.0,30.06,NNE,26,0.0,3.0,95,0.00,,,0.18,,2013-08-11 12:54:00,
2013-08-11 09:06:00,63.0,61.0,30.06,ENE,67,0.0,3.0,93,0.00,,,0.18,,2013-08-11 13:06:00,
2013-08-11 09:16:00,64.0,61.0,30.06,East,80,0.0,3.0,91,0.00,,,0.18,,2013-08-11 13:16:00,
2013-08-11 09:26:00,64.0,61.0,30.06,East,80,0.0,3.0,91,0.00,,,0.18,,2013-08-11 13:26:00,
2013-08-11 09:39:00,66.0,63.0,30.07,East,80,0.0,2.0,89,0.00,,,0.18,,2013-08-11 13:39:00,
2013-08-11 09:45:00,67.0,63.0,30.07,East,79,0.0,2.0,87,0.00,,,0.18,,2013-08-11 13:45:00,
2013-08-11 10:05:00,69.0,64.0,30.07,East,98,0.0,7.0,84,0.00,,,0.18,,2013-08-11 14:05:00,
2013-08-11 10:17:00,70.0,65.0,30.07,North,9,0.0,2.0,83,0.00,,,0.18,,2013-08-11 14:17:00,
2013-08-11 10:24:00,70.0,65.0,30.07,North,9,0.0,2.0,83,0.00,,,0.18,,2013-08-11 14:24:00,
2013-08-11 10:35:00,71.0,65.0,30.08,NE,36,0.0,2.0,82,0.00,,,0.18,,2013-08-11 14:35:00,
2013-08-11 10:47:00,71.0,65.0,30.08,NE,36,0.0,2.0,82,0.00,,,0.18,,2013-08-11 14:47:00,
2013-08-11 10:57:00,72.0,66.0,30.08,NNE,18,0.0,3.0,81,0.00,,,0.18,,2013-08-11 14:57:00,
2013-08-11 11:07:00,73.0,66.0,30.08,North,355,0.0,3.0,78,0.00,,,0.18,,2013-08-11 15:07:00,
2013-08-11 11:14:00,73.0,66.0,30.08,North,355,0.0,3.0,78,0.00,,,0.18,,2013-08-11 15:14:00,
2013-08-11 11:24:00,74.0,66.0,30.08,East,99,0.0,3.0,76,0.00,,,0.18,,2013-08-11 15:24:00,
2013-08-11 11:38:00,75.0,66.0,30.07,East,86,0.0,3.0,73,0.00,,,0.18,,2013-08-11 15:38:00,
2013-08-11 11:48:00,75.0,66.0,30.07,East,86,0.0,3.0,73,0.00,,,0.18,,2013-08-11 15:48:00,
2013-08-11 12:00:00,77.0,66.0,30.07,ENE,65,0.0,2.0,70,0.00,,,0.18,,2013-08-11 16:00:00,
2013-08-11 12:09:00,76.0,66.0,30.07,WNW,294,0.0,4.0,72,0.00,,,0.18,,2013-08-11 16:09:00,
2013-08-11 12:15:00,76.0,66.0,30.07,WNW,294,0.0,4.0,72,0.00,,,0.18,,2013-08-11 16:15:00,
2013-08-11 12:29:00,77.0,65.0,30.06,East,98,0.0,2.0,67,0.00,,,0.18,,2013-08-11 16:29:00,
2013-08-11 12:39:00,79.0,64.0,30.07,East,96,0.0,2.0,61,0.00,,,0.18,,2013-08-11 16:39:00,
2013-08-11 12:46:00,79.0,64.0,30.07,East,96,0.0,2.0,61,0.00,,,0.18,,2013-08-11 16:46:00,
2013-08-11 13:08:00,80.0,64.0,30.05,ESE,111,0.0,4.0,59,0.00,,,0.18,,2013-08-11 17:08:00,
2013-08-11 13:14:00,80.0,64.0,30.05,ESE,111,0.0,4.0,59,0.00,,,0.18,,2013-08-11 17:14:00,
2013-08-11 13:25:00,79.0,62.0,30.05,ENE,58,0.0,4.0,56,0.00,,,0.18,,2013-08-11 17:25:00,
2013-08-11 13:36:00,79.0,63.0,30.05,WNW,292,2.0,5.0,58,0.00,,,0.18,,2013-08-11 17:36:00,
2013-08-11 13:45:00,79.0,63.0,30.05,WNW,292,2.0,5.0,58,0.00,,,0.18,,2013-08-11 17:45:00,
2013-08-11 13:58:00,79.0,64.0,30.06,West,265,1.0,4.0,60,0.00,,,0.18,,2013-08-11 17:58:00,
2013-08-11 14:06:00,78.0,62.0,30.06,WNW,292,1.0,4.0,58,0.00,,,0.17,,2013-08-11 18:06:00,
2013-08-11 14:18:00,78.0,62.0,30.06,WNW,292,1.0,4.0,58,0.00,,,0.17,,2013-08-11 18:18:00,
2013-08-11 14:28:00,79.0,63.0,30.05,WNW,300,3.0,8.0,58,0.00,,,0.17,,2013-08-11 18:28:00,
2013-08-11 14:47:00,79.0,62.0,30.05,WNW,288,4.0,8.0,57,0.00,,,0.17,,2013-08-11 18:47:00,
2013-08-11 15:16:00,80.0,62.0,30.04,WNW,282,1.0,7.0,54,0.00,,,0.17,,2013-08-11 19:16:00,
2013-08-11 15:26:00,79.0,63.0,30.04,WNW,297,0.0,6.0,59,0.00,,,0.17,,2013-08-11 19:26:00,
2013-08-11 15:33:00,80.0,64.0,30.04,WNW,299,6.0,9.0,58,0.00,,,0.17,,2013-08-11 19:33:00,
2013-08-11 15:50:00,80.0,64.0,30.04,WNW,299,6.0,9.0,58,0.00,,,0.17,,2013-08-11 19:50:00,
2013-08-11 16:00:00,80.0,64.0,30.04,West,263,1.0,6.0,58,0.00,,,0.17,,2013-08-11 20:00:00,
2013-08-11 16:07:00,80.0,63.0,30.04,WNW,295,3.0,8.0,57,0.00,,,0.10,,2013-08-11 20:07:00,
2013-08-11 16:19:00,80.0,63.0,30.04,WNW,295,3.0,8.0,57,0.00,,,0.10,,2013-08-11 20:19:00,
2013-08-11 16:28:00,80.0,63.0,30.03,WNW,292,0.0,8.0,57,0.00,,,0.10,,2013-08-11 20:28:00,
2013-08-11 16:38:00,81.0,64.0,30.03,WNW,291,3.0,9.0,56,0.00,,,0.10,,2013-08-11 20:38:00,
2013-08-11 16:48:00,81.0,64.0,30.03,WNW,291,3.0,9.0,56,0.00,,,0.10,,2013-08-11 20:48:00,
2013-08-11 16:58:00,81.0,64.0,30.02,WNW,294,0.0,9.0,57,0.00,,,0.10,,2013-08-11 20:58:00,
2013-08-11 17:07:00,81.0,62.0,30.01,WSW,240,0.0,7.0,53,0.00,,,0.01,,2013-08-11 21:07:00,
2013-08-11 17:27:00,82.0,64.0,30.01,WNW,300,5.0,8.0,54,0.00,,,0.01,,2013-08-11 21:27:00,
2013-08-11 17:34:00,80.0,62.0,30.01,WNW,290,2.0,5.0,55,0.00,,,0.01,,2013-08-11 21:34:00,
2013-08-11 17:59:00,79.0,63.0,30.01,WNW,290,1.0,4.0,58,0.00,,,0.01,,2013-08-11 21:59:00,
2013-08-11 18:04:00,80.0,65.0,30.01,WNW,292,4.0,8.0,60,0.00,,,0.01,,2013-08-11 22:04:00,
2013-08-11 18:16:00,80.0,65.0,30.01,WNW,292,4.0,8.0,60,0.00,,,0.01,,2013-08-11 22:16:00,
2013-08-11 18:25:00,80.0,64.0,30.00,WNW,284,3.0,8.0,58,0.00,,,0.01,,2013-08-11 22:25:00,
2013-08-11 18:58:00,79.0,65.0,29.99,WNW,283,4.0,7.0,62,0.00,,,0.01,,2013-08-11 22:58:00,
2013-08-11 19:05:00,78.0,64.0,30.00,WNW,284,4.0,7.0,63,0.00,,,0.01,,2013-08-11 23:05:00,
2013-08-11 19:16:00,78.0,64.0,30.00,WNW,284,4.0,7.0,63,0.00,,,0.01,,2013-08-11 23:16:00,
2013-08-11 19:29:00,78.0,65.0,30.00,WNW,289,3.0,6.0,65,0.00,,,0.01,,2013-08-11 23:29:00,
2013-08-11 19:35:00,77.0,65.0,29.99,WNW,289,2.0,5.0,67,0.00,,,0.01,,2013-08-11 23:35:00,
2013-08-11 19:48:00,77.0,65.0,29.99,WNW,289,2.0,5.0,67,0.00,,,0.01,,2013-08-11 23:48:00,
2013-08-11 19:57:00,77.0,66.0,30.00,WNW,289,2.0,5.0,68,0.00,,,0.01,,2013-08-11 23:57:00,
2013-08-11 20:17:00,76.0,66.0,30.01,WNW,289,3.0,5.0,71,0.00,,,0.01,,2013-08-12 00:17:00,
2013-08-11 20:25:00,75.0,65.0,30.01,WNW,289,2.0,4.0,72,0.00,,,0.01,,2013-08-12 00:25:00,
2013-08-11 20:37:00,74.0,65.0,30.01,WNW,289,1.0,3.0,74,0.00,,,0.01,,2013-08-12 00:37:00,
2013-08-11 20:59:00,73.0,65.0,30.01,WNW,289,2.0,5.0,76,0.00,,,0.01,,2013-08-12 00:59:00,
2013-08-11 21:07:00,72.0,64.0,30.01,WNW,289,1.0,3.0,77,0.00,,,0.01,,2013-08-12 01:07:00,
2013-08-11 21:14:00,72.0,64.0,30.01,WNW,289,1.0,3.0,77,0.00,,,0.01,,2013-08-12 01:14:00,
2013-08-11 21:26:00,72.0,64.0,30.01,WNW,289,1.0,3.0,76,0.00,,,0.01,,2013-08-12 01:26:00,
2013-08-11 21:46:00,72.0,64.0,30.01,WNW,289,0.0,2.0,75,0.00,,,0.01,,2013-08-12 01:46:00,
2013-08-11 22:08:00,71.0,63.0,30.01,WNW,289,0.0,1.0,76,0.00,,,0.01,,2013-08-12 02:08:00,
2013-08-11 22:15:00,71.0,63.0,30.01,WNW,289,0.0,1.0,76,0.00,,,0.01,,2013-08-12 02:15:00,
2013-08-11 22:25:00,71.0,63.0,30.02,WNW,289,0.0,3.0,77,0.00,,,0.01,,2013-08-12 02:25:00,
2013-08-11 22:36:00,70.0,62.0,30.02,WNW,289,0.0,0.0,76,0.00,,,0.01,,2013-08-12 02:36:00,
2013-08-11 22:47:00,70.0,62.0,30.02,WNW,289,0.0,0.0,76,0.00,,,0.01,,2013-08-12 02:47:00,
2013-08-11 23:00:00,70.0,63.0,30.03,WNW,289,0.0,1.0,79,0.00,,,0.01,,2013-08-12 03:00:00,
2013-08-11 23:07:00,70.0,64.0,30.03,WNW,289,0.0,0.0,80,0.00,,,0.01,,2013-08-12 03:07:00,
2013-08-11 23:15:00,70.0,64.0,30.03,WNW,289,0.0,0.0,80,0.00,,,0.01,,2013-08-12 03:15:00,
2013-08-11 23:25:00,70.0,63.0,30.03,WNW,289,0.0,0.0,79,0.00,,,0.01,,2013-08-12 03:25:00,
2013-08-11 23:56:00,69.0,62.0,30.03,WNW,289,0.0,0.0,79,0.00,,,0.01,,2013-08-12 03:56:00,